Location: Sternwarte Stuttgart
(48.7670°N, 9.1830°E)
Time: 15:45:04
(UTC+01:00)

ATLAS 5 CENTAUR R/B - Pass Details

Date: 24 January 2019
Orbit: 300 x 14379 km, 60.8° (Epoch: 16 February)

Event Time Altitude Azimuth Distance (km) Brightness Sun altitude
Exits shadow 05:02:15 70° 343° (NNW) 1,068 3.0 -29.6°
Drops below altitude 10° 05:14:52 10° 50° (NE) 6,118 7.7 -27.5°
Sets 05:23:39 0° 53° (NE) 9,288 8.8 -26.1°
